Showing default

SPHEREX, 63182

Orbit data source: Space-Track

SPHEREX, 63182 is a payload satellite owned by JPL (US) in SSO that was launched on Wed, 12 Mar 2025 UTC via an FALCON 9 launch vehicle from the Air Force Western Test Range (AFWTR). Payload-class satellites include a variety of spacecraft equipped with specific instruments for various scientific and technological missions. These include communications satellites like Starlink; space stations such as the ISS; scientific satellites like the Hubble; Earth observation satellites from companies like Planet Labs, Umbra, and HawkEye 360; GPS; miniature CubeSats for education and research; and military/defense satellites.

Loading next visibility...
Identifier
63182, 2025-047E
Orbit
SSO
Country
Flag of USUS
Related business
Manufacturer
BAEB
Mission
Operational Civil Astronomy
Bus & Motor
SPHEREX, Unknown motor
Mass
502 kg wet, 502 kg dry
Launch date (UTC)
2025-03-12 (11 months ago)
Launch vehicle
FALCON 9
Launch site
Air Force Western Test Range (AFWTR)
Object type
Payload
Rocket body
Debris
Shape & HBR
Box + 1 Pan, 2.7 m
Radar Cross Section
0.625 m², Large (>1 m²)

Expand to show TLE details & history
Last TLE update: 7 hours ago

TLE from 7 hours ago
0 SPHEREX
1 63182U 25047E   26035.46615940  .00001631  00000-0  25722-3 0  9991
2 63182  97.9545 222.7631 0009263 257.8767 102.1404 14.73734829 48491
Epoch: 2026-02-04T11:11Z
TLE epoch observation values (Epoch: 2026-02-04T11:11:16.172Z)
Latitude
0.00002°
Longitude
-79.68662°
Altitude
653.557 km
Speed
7.53 km/s
True Right ascension
14h 51m 03s
True Declination
0° 00' 00"
Sunlit
Object was in daylight at epoch
Visualization orbit readout
Latitude
Unknown
Longitude
Unknown
Altitude
Unknown
Speed
Unknown
Apparent Right ascension
Unknown
Apparent Declination
Unknown
Sunlit
N/A
Visualization observer readout
Local Sidereal Time
20:15:44
Azimuth
Unknown
Elevation
Unknown
Doppler factor
Unknown
Orbital elements
Apogee altitude
652.729 km
Perigee altitude
639.715 km
Semi-major axis
7,024.359 km
Eccentricity
0.00093
Inclination
97.9545°
RAAN
222.7631°
Arg. of periapsis
257.8767°
True anomaly
102.24415°
Mean anomaly
102.1404°
Eccentric anomaly
102.19228°
Mean motion
3.68666 °/min
Orbital period
97.65 mins
BSTAR
0.00025722
Loading maneuver chart data...
Computing Atmospheric mass density...
Loading historical data...
Loading historical data...
Loading historical data...
Loading historical data...
Loading historical data...
Loading historical data...
Loading historical data...
Other satellites on launch #47 in the year 2025 (2025-03-12 UTC)

Documentation

Showing up to 5 results
|